User: anonymous   Login
Location: Brabourne
(51.1333°N, 1.0000°E)
Time: 08:46:38
(UTC+00:00)
Language:

Cosmos 1825 - Orbit

View from above orbital plane
View from above orbital plane
View from above satellite
View from above satellite

Ground track
Ground track

The orbit data is extracted from the following two-line orbital elements,

1 17566U 87024A   21267.85737945  .00001640  00000-0  72843-4 0  9991
2 17566  82.5076 180.4198 0004134 147.5704 212.5786 15.20855311890870
Epoch (UTC): 24 September 2021 20:34:37
Eccentricity: 0.0004134
inclination: 82.5076°
perigee height: 500 km
apogee height: 506 km
right ascension of ascending node: 180.4198°
argument of perigee: 147.5704°
revolutions per day: 15.20855311
mean anomaly at epoch: 212.5786°
orbit number at epoch: 89087

The dashed part of the orbit path shows where the satellite is in the earth's shadow,  

DLR